Location: Lauris
(43.7480°N, 5.3152°E)
Time: 01:55:28
(UTC+00:00)

Daily predictions for brighter satellites

Satellite Brightness Start Highest point End
(mag) Time Altitude Azimuth Time Altitude Azimuth Time Altitude Azimuth
Cosmos 2344 4.5 02:53:31 41° ENE 02:53:31 41° ENE 02:58:42 10° NE
USA 215 4.3 03:20:11 10° E 03:25:43 37° NNE 03:25:43 37° NNE
Cosmos 2369 Rocket 4.4 03:32:37 10° SSE 03:36:46 22° E 03:40:57 10° NE
Cosmos 1867 4.4 03:50:14 48° ESE 03:50:14 48° ESE 03:54:21 10° SE
Cosmos 1943 Rocket 2.4 04:06:38 64° NE 04:06:38 64° NE 04:11:24 10° NNE
CZ-2C R/B 4.0 04:03:13 10° SE 04:08:14 37° ENE 04:13:10 10° N
Cosmos 2082 Rocket 4.4 04:15:38 12° S 04:15:38 12° S 04:16:05 10° S
Cosmos 1241 Rocket 4.5 04:10:32 63° N 04:11:29 75° NE 04:17:40 10° SE
CENTAUR R/B 2.3 04:16:08 73° NW 04:16:08 73° NW 04:23:08 10° NE
Cosmos 2297 3.7 04:21:07 70° NNW 04:21:07 70° NNW 04:26:23 10° NNE
NOSS 3-2 (A) 3.7 04:27:50 48° NNW 04:27:50 48° NNW 04:33:31 10° NNE
Cosmos 2278 Rocket 4.4 04:33:50 11° N 04:33:50 11° N 04:34:18 10° N
NOSS 3-2 (C) 3.2 04:33:35 58° WSW 04:34:39 74° NW 04:41:04 10° NE
SKYMED 2 4.1 04:30:43 10° SSE 04:34:57 56° ENE 04:37:12 26° N
Envisat 3.3 04:31:31 10° NNE 04:36:36 66° ESE 04:41:38 10° S
Cosmos 2098 Rocket 3.6 04:37:13 10° S 04:40:52 54° E 04:45:28 10° NNE
Meteor 2-3 Rocket 3.6 04:35:48 10° SSW 04:41:24 65° WNW 04:47:07 10° N
Landsat 5 4.3 04:40:12 10° SSE 04:44:36 55° ENE 04:48:26 13° N
Cosmos 968 Rocket 3.3 04:42:38 36° SW 04:44:45 72° WNW 04:49:54 10° NNE
Meteor 2-13 Rocket 4.3 04:39:43 10° S 04:45:50 90° W 04:51:58 10° N
CZ-4B R/B 4.4 04:44:38 10° NNE 04:49:06 68° ESE 04:53:32 10° S
Genesis I 3.1 04:49:24 74° SW 04:49:24 74° SW 04:53:25 10° SSE
Cosmos 921 Rocket 2.9 04:50:35 46° NNW 04:51:52 86° WSW 04:56:20 10° SSE
Okean 3 Rocket 4.3 04:48:03 10° S 04:52:27 54° E 04:56:55 10° NNE
H-2A R/B 4.3 04:52:07 10° ESE 04:55:27 23° ENE 04:58:52 10° NNE
Meteor 1-26 Rocket 4.3 04:53:51 19° NNW 04:57:59 57° W 05:03:37 10° S
Cosmos 1812 2.6 04:56:57 39° N 04:58:19 90° W 05:02:09 10° S
CBERS 1 LM4 rocket 4.4 04:54:57 10° NNE 04:59:49 87° ESE 05:04:51 10° SSW
ADEOS 4.3 04:54:59 10° NNE 05:00:08 55° E 05:05:14 10° S
Gbstr 26 Del rocket 4.1 05:01:04 25° SSW 05:01:04 25° SSW 05:04:11 10° SSE
USA 238 DEB 3.8 05:00:10 32° W 05:02:53 49° NW 05:09:33 10° NNE
USA 238 3.8 05:00:14 32° W 05:02:59 49° NW 05:09:39 10° NNE
Cosmos 1151 Rocket 2.9 05:01:35 15° N 05:05:12 87° W 05:09:35 10° S
Cosmos 1766 Rocket 3.5 05:01:18 10° S 05:05:39 85° E 05:09:59 10° N
Cosmos 2344 4.1 05:03:34 30° WNW 05:06:05 37° NW 05:13:27 10° NNE
Cosmos 2263 4.2 05:00:46 10° SSW 05:06:27 85° ESE 05:12:14 10° NNE
CZ-2C R/B 4.2 05:03:27 10° NNE 05:08:05 42° E 05:12:52 10° S
USA 215 3.2 05:02:05 10° SE 05:08:37 87° NE 05:13:03 23° NW
Cosmos 1782 3.8 05:15:55 28° WSW 05:15:55 28° WSW 05:18:27 10° SSW
Meteor 1-31 Rocket 2.7 05:11:07 10° N 05:14:59 62° WNW 05:18:50 10° SSW
Cosmos 2279 Rocket 3.9 05:09:39 10° N 05:15:52 83° W 05:22:03 10° S
BREEZE-M DEB (TANK) 4.2 05:01:47 10° SW 05:17:05 63° SSE 05:21:03 10° ENE
Cosmos 1328 Rocket 3.5 05:13:27 10° N 05:17:53 90° W 05:22:14 10° S
Cosmos 2369 Rocket 2.2 05:14:51 10° SW 05:20:20 56° WNW 05:25:51 10° NNE
SJ-12 4.3 05:16:27 10° N 05:20:21 40° WNW 05:24:13 10° SW
FALCON 9 DEB 4.2 05:21:07 28° NNW 05:21:11 28° NNW 05:24:11 10° NE
Cosmos 1862 3.2 05:18:03 10° SSW 05:21:57 63° W 05:25:53 10° N
COSMO-SKYMED 1 2.9 05:18:54 10° S 05:23:03 44° W 05:25:48 19° NW
H-2A R/B 3.4 05:25:01 10° N 05:28:18 30° WNW 05:31:34 10° SW
Cosmos 1634 Rocket 4.4 05:24:58 10° NNW 05:30:46 40° W 05:36:30 10° SSW
CZ-4B R/B 2.7 05:34:11 10° NNE 05:37:46 75° ESE 05:41:20 10° S
CZ-4B R/B 3.5 05:36:17 10° SE 05:39:07 26° ENE 05:41:54 10° NNE
Cosmos 1408 Rocket 3.4 05:36:43 10° S 05:41:01 86° W 05:45:21 10° N
Cosmos 1656 Rocket 3.8 05:38:48 10° SW 05:44:01 49° WNW 05:49:19 10° NNE
CZ-4C R/B 3.4 05:41:09 10° SSW 05:44:04 34° W 05:46:01 17° NW
Cosmos 1503 Rocket 4.0 05:39:11 10° SSW 05:44:22 62° WNW 05:49:41 10° NNE
DMSP B5D2-2 4.0 05:39:10 10° S 05:44:24 79° WSW 05:49:38 10° NNW
Cosmos 1743 Rocket 4.2 05:44:03 10° S 05:48:22 60° E 05:52:41 10° NNE
CZ-2C R/B 3.4 05:43:41 10° SSW 05:48:32 31° W 05:53:19 10° NNW
Cosmos 1943 Rocket 3.6 05:48:15 16° WNW 05:50:13 18° NW 05:54:03 10° N
Cosmos 1777 Rocket 4.2 05:50:54 10° SSW 05:56:05 78° ESE 06:01:21 10° NNE
Cosmos 1515 Rocket 3.6 05:53:51 10° NNW 05:58:11 61° W 06:02:26 10° S
SL-8 R/B 3.7 05:54:22 14° WNW 05:58:26 89° SSW 06:03:13 10° ESE
Meteor 1-27 Rocket 3.7 05:55:37 10° NNW 06:01:16 80° W 06:07:00 10° S
NOAA 6 4.3 05:58:14 10° NNE 06:03:22 73° ESE 06:08:29 10° S
COSMOS 2487 3.9 06:02:06 10° N 06:05:13 35° ENE 06:08:18 10° SE
SJ 16-02 1.4 06:01:17 10° SSW 06:05:40 88° ESE 06:10:04 10° NNE
Cosmos 773 Rocket 4.0 06:00:29 10° NNW 06:05:43 71° WSW 06:10:51 10° S
CENTAUR R/B 3.8 06:03:21 11° WNW 06:08:10 23° NNW 06:13:58 10° NNE
CZ-3 R/B 4.2 06:08:46 10° SSW 06:10:59 11° S 06:12:46 10° SSE
Alouette 2 Rocket 3.2 06:07:44 10° NNW 06:11:35 85° ENE 06:15:09 10° SSE
Cosmos 1340 Rocket 2.7 06:09:56 10° SSW 06:13:51 71° WNW 06:17:51 10° N
NOAA 12 4.1 06:09:18 10° N 06:14:29 59° WNW 06:19:37 10° SSW
Envisat 4.3 06:11:48 10° NNW 06:15:04 18° WNW 06:18:22 10° WSW
Cosmos 1500 Rocket 3.6 06:12:51 10° SSW 06:17:15 62° W 06:21:43 10° N
SL-27 R/B 2.7 06:15:23 10° NNW 06:18:52 50° WSW 06:22:18 10° S
Cosmos 1939 Rocket 3.0 06:17:13 10° N 06:21:01 47° WNW 06:24:45 10° SSW
DELTA 2 R/B (1) 4.2 06:15:53 10° WSW 06:21:17 56° S 06:26:43 10° E
FALCON 9 R/B 4.4 06:20:13 10° W 06:35:46 35° SW 06:41:07 10° SSE
